Retour au catalogue

GEESAT 2-09

ActifCommunicationsLEO
NORAD 58913·PAYLOAD·🇨🇳 China

Lancé Feb 2, 2024 depuis Xichang Satellite Launch Center

Loading…

Prochains Passages (prochaines 24 heures)

TLE

FraisSource: Space-Track

Époque: Sep 14, 2026, 22:46 UTC

1 58913U 24023J   26257.94921232  .00001029  00000-0  15119-3 0  9993
2 58913  50.0040 298.4273 0021343 350.6777   9.3762 14.83441483142240

Suivez GEESAT 2-09 en temps réel avec AllMySat

Download on the App Store